DateTimeUTC,F1_A11,F1_S11,BsB_S11,BsG_S11,BsR_S11,BbsB_S11,BbsG_S11,BbsR_S11,BaB_A11,BaG_A11,BaR_A11,Tu_S11,T_S11,Uu_S11,U_S11,P_S11,T1_A11
2021-07-03T04:00:00Z,00000200,20000000,,,,,,,-000.17,0000.01,-000.04,19.2,25.8,03.6,02.4,0674.0,31.2
2021-07-03T04:01:00Z,00000200,20000000,,,,,,,-000.06,-000.09,-000.29,19.2,25.8,03.6,02.4,0674.0,31.2
2021-07-03T04:02:00Z,00000200,20000000,,,,,,,0000.17,0000.31,0000.14,19.1,25.8,03.6,02.4,0674.0,31.1
2021-07-03T04:03:00Z,00000200,60000000,,,,,,,0000.25,0000.34,0000.04,19.1,25.8,03.6,02.4,0674.0,31.1
2021-07-03T04:04:00Z,00000200,40000000,0000.56,0000.24,0000.25,-000.04,0000.06,0000.05,-000.11,-000.55,0000.23,19.1,25.6,03.7,02.5,0674.8,31.1
2021-07-03T04:05:00Z,00000200,00000000,0001.13,0000.33,0000.17,0000.93,-000.18,0000.09,0000.34,0000.00,-000.03,19.0,25.5,03.8,02.6,0674.9,31.1
2021-07-03T04:06:00Z,00000200,00000000,0000.43,0000.32,0000.24,0000.36,-000.13,-000.37,-000.07,0000.21,-000.06,19.0,25.5,03.9,02.6,0674.9,31.1
2021-07-03T04:07:00Z,00000200,00000000,0000.15,0000.36,0000.38,-000.10,0000.20,0000.08,0000.37,0000.17,0000.23,18.9,25.4,03.9,02.6,0674.9,31.1
2021-07-03T04:08:00Z,00000200,00000000,0000.65,0000.25,0000.38,-000.02,-000.07,-000.16,-000.04,0000.02,-000.12,18.9,25.4,03.9,02.6,0674.9,31.1
2021-07-03T04:09:00Z,00000200,00000000,0000.20,0000.06,0000.10,-000.07,-000.35,-000.21,0000.17,0000.31,0000.53,19.0,25.4,04.0,02.7,0674.9,31.1
2021-07-03T04:10:00Z,00000200,00000000,0000.59,0000.04,0000.62,0000.09,-000.10,-000.03,-000.17,-000.21,-000.15,19.1,25.4,03.8,02.6,0675.0,31.2
2021-07-03T04:11:00Z,00000200,00000000,0000.19,0000.38,0000.28,-000.32,-000.19,0000.09,0000.12,0000.37,-000.02,19.1,25.4,03.9,02.7,0675.0,31.2
2021-07-03T04:12:00Z,00000200,00000000,0000.70,0000.19,0000.12,0000.60,-000.12,0000.11,0000.26,0000.16,0000.29,19.2,25.5,03.8,02.6,0675.0,31.2
2021-07-03T04:13:00Z,00000200,00000000,0000.33,0000.30,0000.48,-000.00,-000.01,0000.02,-000.06,-000.24,-000.37,19.3,25.5,03.7,02.5,0675.0,31.2
2021-07-03T04:14:00Z,00000200,00000000,0000.61,0000.18,0000.30,0000.33,-000.15,0000.02,0000.09,0000.13,0000.34,19.3,25.5,03.8,02.6,0675.0,31.2
2021-07-03T04:15:00Z,00000200,00000000,0000.78,-000.05,0000.40,-000.26,-000.03,-000.17,-000.15,-000.31,-000.30,19.3,25.5,03.8,02.6,0675.0,31.2
2021-07-03T04:16:00Z,00000200,00000000,0000.30,0000.19,-000.06,-000.07,-000.05,-000.07,-000.32,0000.20,-000.10,19.2,25.5,03.8,02.6,0675.0,31.1
2021-07-03T04:17:00Z,00000200,00000000,0000.42,-000.03,0000.34,0000.22,-000.09,-000.06,0000.24,0000.04,0000.16,19.1,25.5,03.6,02.5,0674.9,31.1
2021-07-03T04:18:00Z,00000200,00000000,0000.76,0000.11,0000.14,0000.52,-000.12,-000.27,0000.21,0000.14,-000.42,19.1,25.4,03.5,02.4,0674.9,31.1
2021-07-03T04:19:00Z,00000200,00000000,0000.71,0000.44,0000.34,0000.12,0000.05,0000.11,-000.45,-000.34,0000.07,19.0,25.4,03.5,02.4,0674.9,31.1
2021-07-03T04:20:00Z,00000200,00000000,0001.02,0000.54,0000.53,-000.42,-000.09,-000.42,0000.04,0000.20,0000.04,19.0,25.4,03.5,02.3,0674.9,31.1
2021-07-03T04:21:00Z,00000200,00000000,0000.62,0000.04,0000.27,-000.33,0000.06,-000.28,-000.19,-000.03,0000.21,18.9,25.3,03.3,02.2,0674.9,31.1
2021-07-03T04:22:00Z,00000200,00000000,0000.49,0000.25,0000.03,-000.49,-000.32,0000.17,0000.37,-000.06,-000.30,18.9,25.3,03.3,02.3,0674.9,31.1
2021-07-03T04:23:00Z,00000200,00000000,-000.04,-000.10,0000.40,-000.05,-000.27,0000.00,0000.06,-000.07,0000.52,18.9,25.3,03.3,02.2,0674.9,31.1
2021-07-03T04:24:00Z,00000200,00000000,0000.78,-000.04,0000.39,-000.10,-000.18,-000.13,0000.20,-000.05,-000.39,18.9,25.3,03.2,02.2,0674.9,31.1
2021-07-03T04:25:00Z,00000200,00000000,0000.19,-000.15,0000.08,-000.18,0000.10,-000.16,0000.06,0000.33,0000.36,19.0,25.3,03.1,02.1,0675.0,31.1
2021-07-03T04:26:00Z,00000200,00000000,0000.17,0000.16,-000.04,0000.45,-000.10,-000.15,0000.00,-000.09,0000.01,19.1,25.3,03.2,02.2,0675.0,31.1
2021-07-03T04:27:00Z,00000200,00000000,0000.19,0000.33,-000.01,0000.22,0000.13,-000.27,-000.26,0000.14,0000.38,19.1,25.4,03.0,02.1,0675.0,31.2
2021-07-03T04:28:00Z,00000200,00000000,0000.49,0000.15,0000.16,0000.27,0000.20,-000.03,-000.28,-000.11,-000.66,19.2,25.4,03.0,02.0,0675.0,31.2
2021-07-03T04:29:00Z,00000200,00000000,0000.44,-000.05,0000.57,-000.02,-000.25,0000.02,0000.14,-000.13,0000.07,19.3,25.5,02.9,02.0,0675.0,31.2
2021-07-03T04:30:00Z,00000200,00000000,0001.19,0000.20,0000.25,0000.31,0000.02,-000.01,-000.04,0000.27,0000.02,19.3,25.5,02.8,01.9,0675.0,31.2
2021-07-03T04:31:00Z,00000200,00000000,0000.32,0000.11,0000.05,-000.16,0000.14,-000.27,0000.04,-000.25,-000.07,19.4,25.5,02.8,01.9,0675.0,31.2
2021-07-03T04:32:00Z,00000200,00000000,0000.72,-000.06,0000.04,0000.48,-000.15,-000.15,-000.35,0000.10,0000.17,19.3,25.5,02.8,01.9,0675.0,31.2
2021-07-03T04:33:00Z,00000200,00000000,0000.56,0000.26,0000.32,-000.07,0000.03,-000.30,0000.19,-000.10,-000.21,19.3,25.5,02.7,01.8,0675.0,31.2
2021-07-03T04:34:00Z,00000200,00000000,0000.09,-000.07,0000.16,-000.23,-000.32,0000.00,-000.22,-000.30,-000.08,19.3,25.5,02.7,01.8,0674.9,31.2
2021-07-03T04:35:00Z,00000200,00000000,0000.24,-000.06,0000.35,0000.58,0000.00,0000.03,0000.20,0000.18,-000.15,19.2,25.5,02.7,01.9,0674.9,31.1
2021-07-03T04:36:00Z,00000200,00000000,0000.81,0000.02,0000.30,0000.39,0000.26,0000.07,0000.17,-000.05,0000.40,19.2,25.4,02.6,01.8,0674.9,31.1
2021-07-03T04:37:00Z,00000200,00000000,0001.00,0000.08,0000.33,0000.05,-000.18,-000.01,-000.23,0000.01,-000.28,19.1,25.4,02.6,01.8,0674.9,31.1
2021-07-03T04:38:00Z,00000200,00000000,0000.93,0000.44,0000.07,-000.04,-000.22,-000.07,0000.59,0000.07,0000.32,19.1,25.4,02.6,01.8,0674.9,31.1
2021-07-03T04:39:00Z,00000200,00000000,0000.32,0000.05,0000.13,0000.28,-000.09,-000.09,-000.58,-000.32,-000.36,19.1,25.4,02.5,01.7,0674.9,31.1
2021-07-03T04:40:00Z,00000200,00000000,0000.47,-000.28,0000.17,-000.21,0000.00,-000.10,0000.11,0000.46,0000.20,19.2,25.4,02.5,01.7,0674.9,31.1
2021-07-03T04:41:00Z,00000200,00000000,0000.77,-000.08,0000.44,0000.25,-000.14,0000.06,0000.10,-000.11,0000.36,19.2,25.5,02.5,01.7,0674.9,31.2
2021-07-03T04:42:00Z,00000200,00000000,0000.37,0000.18,0000.19,0000.01,-000.07,0000.22,0000.10,0000.23,-000.07,19.3,25.5,02.4,01.6,0674.9,31.2
2021-07-03T04:43:00Z,00000200,00000000,0000.72,0000.25,0000.19,0000.33,-000.10,0000.04,-000.16,0000.09,0000.03,19.4,25.5,02.3,01.6,0675.0,31.2
2021-07-03T04:44:00Z,00000200,00000000,0000.89,0000.19,0000.20,0000.72,-000.25,-000.10,-000.07,-000.52,0000.02,19.4,25.6,02.3,01.6,0674.9,31.2
2021-07-03T04:45:00Z,00000200,00000000,0001.07,-000.04,-000.01,-000.27,-000.10,0000.08,0000.09,0000.30,-000.44,19.4,25.6,02.3,01.6,0674.9,31.2
2021-07-03T04:46:00Z,00000200,00000000,0000.30,0000.01,0000.33,-000.27,-000.21,-000.26,-000.01,-000.06,-000.18,19.4,25.6,02.2,01.5,0674.9,31.2
2021-07-03T04:47:00Z,00000200,00000000,0000.38,0000.42,0000.24,-000.38,-000.07,-000.29,0000.15,0000.10,0000.10,19.3,25.6,02.2,01.5,0674.8,31.2
2021-07-03T04:48:00Z,00000200,00000000,0000.70,0000.06,0000.18,0000.22,-000.11,0000.13,0000.14,0000.49,0000.47,19.3,25.6,02.2,01.5,0674.8,31.1
2021-07-03T04:49:00Z,00000200,00000000,0000.16,-000.02,-000.07,0000.60,-000.30,0000.06,0000.14,-000.28,-000.23,19.2,25.5,02.3,01.6,0674.8,31.1
2021-07-03T04:50:00Z,00000200,00000000,0000.90,0000.21,0000.11,0000.21,0000.01,-000.02,-000.20,-000.11,-000.13,19.2,25.5,02.3,01.5,0674.8,31.1
2021-07-03T04:51:00Z,00000200,00000000,0000.93,0000.19,0000.55,0000.17,0000.01,-000.04,-000.27,0000.13,0000.36,19.1,25.5,02.2,01.5,0674.8,31.1
2021-07-03T04:52:00Z,00000200,00000000,0001.08,0000.21,-000.14,-000.01,0000.15,-000.20,0000.46,-000.04,-000.07,19.1,25.4,02.3,01.6,0674.8,31.1
2021-07-03T04:53:00Z,00000200,00000000,0001.31,0000.20,0000.28,-000.01,0000.24,0000.21,0000.12,0000.21,0000.13,19.1,25.4,02.2,01.5,0674.8,31.1
2021-07-03T04:54:00Z,00000200,00000000,0000.41,-000.04,0000.42,0000.43,-000.01,-000.05,-000.09,-000.30,-000.16,19.1,25.4,02.2,01.5,0674.8,31.1
2021-07-03T04:55:00Z,00000200,00000000,0001.06,0000.11,0000.08,-000.06,-000.17,-000.02,-000.04,0000.26,0000.15,19.2,25.4,02.1,01.5,0674.8,31.1
2021-07-03T04:56:00Z,00000200,00000000,0000.41,-000.30,0000.37,-000.03,0000.10,0000.15,-000.11,-000.07,0000.04,19.2,25.5,02.1,01.4,0674.8,31.1
2021-07-03T04:57:00Z,00000200,40000000,,,,,,,0000.78,0000.59,0000.29,19.3,25.5,01.9,01.3,0674.9,31.2
2021-07-03T04:58:00Z,00000200,60000000,,,,,,,-000.63,-000.18,-000.19,19.0,25.7,02.3,01.5,0673.8,31.2
2021-07-03T04:59:00Z,00000200,20000000,,,,,,,-000.21,-000.65,-000.52,19.0,25.8,02.1,01.4,0673.8,31.2
